This is the latest recevied weather packets stored in our database for station/object DC7RY. If no packets are shown the sender has not sent any weather packets the latest 10 day(s).
| Time | Temp. | Humidity | Pressure | Rain* | Wind** | Luminosity | Snow |
|---|---|---|---|---|---|---|---|
| 1777465830 | 14.44° C | 37% | 1018.2 hPa | 0 mm | - | 115 W/m² | - |
| 1777465222 | 14.44° C | 36% | 1018.1 hPa | 0 mm | - | 194 W/m² | - |
| 1777464630 | 14.44° C | 35% | 1018.2 hPa | 0 mm | - | 84 W/m² | - |
| 1777464022 | 14.44° C | 36% | 1018.3 hPa | 0 mm | - | 53 W/m² | - |
| 1777463429 | 14.44° C | 35% | 1018.3 hPa | 0 mm | - | 55 W/m² | - |
| 1777462821 | 14.44° C | 36% | 1018.5 hPa | 0 mm | - | 73 W/m² | - |
| 1777462229 | 14.44° C | 33% | 1018.5 hPa | 0 mm | - | 85 W/m² | - |
| 1777461621 | 14.44° C | 33% | 1018.6 hPa | 0 mm | - | 128 W/m² | - |
| 1777461029 | 13.89° C | 33% | 1018.5 hPa | 0 mm | - | 216 W/m² | - |
| 1777460421 | 13.89° C | 33% | 1018.6 hPa | 0 mm | - | 355 W/m² | - |
| 1777459829 | 13.89° C | 34% | 1018.6 hPa | 0 mm | - | 356 W/m² | - |
| 1777459221 | 13.33° C | 35% | 1018.5 hPa | 0 mm | - | 344 W/m² | - |
| 1777458629 | 13.33° C | 35% | 1018.6 hPa | 0 mm | - | 341 W/m² | - |
| 1777458021 | 13.33° C | 34% | 1018.6 hPa | 0 mm | - | 200 W/m² | - |
| 1777457429 | 13.33° C | 33% | 1018.6 hPa | 0 mm | - | 148 W/m² | - |
| 1777456821 | 12.78° C | 34% | 1018.6 hPa | 0 mm | - | 127 W/m² | - |
| 1777456229 | 12.78° C | 34% | 1018.8 hPa | 0 mm | - | 115 W/m² | - |
| 1777455621 | 12.78° C | 37% | 1018.9 hPa | 0 mm | - | 128 W/m² | - |
| 1777455029 | 12.78° C | 36% | 1019.1 hPa | 0 mm | - | 68 W/m² | - |
| 1777454421 | 12.22° C | 36% | 1019.3 hPa | 0 mm | - | 112 W/m² | - |
| 1777453829 | 12.22° C | 36% | 1019.5 hPa | 0 mm | - | 183 W/m² | - |
| 1777453221 | 11.67° C | 39% | 1019.4 hPa | 0 mm | - | 118 W/m² | - |
| 1777452629 | 11.67° C | 38% | 1019.5 hPa | 0 mm | - | 78 W/m² | - |
| 1777452021 | 11.67° C | 37% | 1019.5 hPa | 0 mm | - | 42 W/m² | - |
| 1777451429 | 11.11° C | 37% | 1019.6 hPa | 0 mm | - | 89 W/m² | - |
* Rain latest hour (hover to see other rain measurements)
** Current wind speed in m/s (hover to see current wind gust speed)